Starlink 11636

operational
NORAD ID: 63194 Int'l Des: 2025-048 Owner: SPXS Country: US Constellation: starlink
LEOCIRCULAR

关于 Starlink 11636

正在加载描述...

实时位置

正在加载3D地球...

即将过境

高度历史

Altitude vs Time

uPlot chart will show altitude changes over time

两行轨道根数

1 63194U 25048M 25303.68948328 .00275746 00000-0 20816-2 0 9993
2 63194 42.9986 23.6606 0001232 28.3573 331.7361 15.70843755 38079
Epoch: Oct 30, 2025 • Age: 27 hours

当前状态

高度 354.6 km
速度 7.70 km/s
星下点 5.52°N, 137.48°W
发射日期 Mar 13, 2025
运行时间 0.6 years
类型 internet

技术详情

分类 Payload
质量 960.00 kg
干质量 910.00 kg
总质量 960.00 kg
长度 0.30 m
直径 4.10 m
跨度 29.00 m
形状 Box + pan
制造商 SPXS
平台类型 Starlink V2MD
阶段状态 In Orbit
所有者/国家 SPXS/US

大型星座

Loading constellations...